DW7013 Weather Reports


time (UTC)temp
C
wind
direction
speed
KPH
gust
KPH
rain 1hr
cm
rain 24hr
cm
rain mn
cm
humidity
%
barometer
mb
20260905213717 12 355 0.0 0.0 0.00 0.15 0.15 82 1027.7
20260905213226 12 355 0.0 0.0 0.00 0.15 0.15 81 1027.8
20260905212725 13 60 0.0 0.0 0.00 0.15 0.15 81 1027.7
20260905212222 13 263 0.0 0.0 0.00 0.15 0.15 81 1027.7
20260905211720 13 55 0.0 0.0 0.00 0.15 0.15 80 1027.7
20260905210722 13 55 0.0 0.0 0.00 0.15 0.15 80 1027.7
20260905210215 13 55 0.0 0.0 0.00 0.15 0.15 80 1027.7
20260905205719 13 55 0.0 0.0 0.00 0.15 0.15 79 1027.7
20260905204729 13 55 0.0 0.0 0.00 0.15 0.15 79 1027.7
20260905204212 13 55 0.0 0.0 0.00 0.15 0.15 78 1027.7
20260905203718 13 55 0.0 0.0 0.00 0.15 0.15 78 1027.7
20260905203216 13 55 0.0 0.0 0.00 0.15 0.15 78 1027.7
20260905202724 13 55 0.0 0.0 0.00 0.15 0.15 78 1027.7
20260905202224 13 33 0.0 0.0 0.00 0.15 0.15 77 1027.6
20260905201708 13 33 0.0 0.0 0.00 0.15 0.15 77 1027.5
20260905201221 13 32 0.0 0.0 0.00 0.15 0.15 77 1027.4
20260905200722 14 33 0.0 0.0 0.00 0.15 0.15 77 1027.4
20260905200227 14 33 0.0 0.0 0.00 0.15 0.15 76 1027.4
20260905195718 14 33 0.0 0.0 0.00 0.15 0.15 76 1027.4
20260905195223 14 27 0.0 0.0 0.00 0.15 0.15 76 1027.4
20260905194714 14 27 0.0 0.0 0.00 0.15 0.15 75 1027.4
20260905194219 14 27 0.0 0.0 0.00 0.15 0.15 75 1027.3
20260905193227 15 27 0.0 0.0 0.00 0.15 0.15 74 1027.1
20260905192717 15 27 0.0 0.0 0.00 0.15 0.15 74 1027.0
20260905192216 15 27 0.0 0.0 0.00 0.15 0.15 73 1027.0
20260905191223 15 27 0.0 0.0 0.00 0.15 0.15 73 1027.1
20260905190717 15 0 0.0 0.0 0.00 0.15 0.15 73 1027.0
20260905190224 15 0 0.0 0.0 0.00 0.15 0.15 72 1026.8
20260905185215 16 0 0.0 0.0 0.00 0.15 0.15 71 1026.8
20260905184720 16 0 0.0 0.0 0.00 0.15 0.15 71 1026.8
20260905183214 16 0 0.0 6.4 0.00 0.15 0.15 70 1026.6
20260905182718 16 312 0.0 6.4 0.00 0.15 0.15 70 1026.5
20260905182218 16 317 1.6 6.4 0.00 0.15 0.15 70 1026.4
20260905181223 16 342 0.0 0.0 0.00 0.15 0.15 69 1026.3
20260905180727 16 331 0.0 0.0 0.00 0.15 0.15 69 1026.3
20260905180218 17 331 0.0 0.0 0.00 0.15 0.15 69 1026.3
20260905175716 17 17 0.0 0.0 0.00 0.15 0.15 68 1026.3
20260905174234 17 5 0.0 0.0 0.00 0.15 0.15 67 1026.3
20260905173720 17 5 0.0 0.0 0.00 0.15 0.15 67 1026.3
20260905173253 17 24 0.0 0.0 0.00 0.15 0.15 67 1026.3
20260905172723 18 25 0.0 0.0 0.00 0.15 0.15 64 1026.2
20260905171713 18 5 0.0 0.0 0.00 0.15 0.15 65 1026.1
20260905171240 18 355 0.0 0.0 0.00 0.15 0.15 65 1026.2
20260905170717 18 323 0.0 0.0 0.00 0.15 0.15 64 1026.1
20260905170211 18 326 0.0 0.0 0.00 0.15 0.15 64 1026.0
20260905165712 18 319 0.0 0.0 0.00 0.15 0.15 63 1026.0
20260905164725 19 308 1.6 9.7 0.00 0.15 0.15 62 1026.0
20260905164216 20 327 1.6 9.7 0.00 0.15 0.15 61 1026.0
20260905163734 20 340 0.0 4.8 0.00 0.15 0.15 60 1026.0
20260905163216 21 339 0.0 4.8 0.00 0.15 0.15 58 1026.0
20260905162710 21 330 0.0 0.0 0.00 0.15 0.15 59 1026.0
20260905161723 20 310 0.0 0.0 0.00 0.15 0.15 63 1025.9
20260905161221 20 320 0.0 0.0 0.00 0.15 0.15 65 1025.9
20260905160733 20 323 0.0 0.0 0.00 0.15 0.15 66 1025.9
20260905160232 20 254 0.0 0.0 0.00 0.15 0.15 69 1025.9
20260905155732 20 273 0.0 8.0 0.00 0.15 0.15 68 1025.9
20260905155223 20 190 0.0 9.7 0.00 0.15 0.15 72 1025.9
20260905154717 20 202 1.6 9.7 0.00 0.15 0.15 71 1025.9
20260905154212 21 180 1.6 9.7 0.00 0.15 0.15 70 1025.8
20260905153717 21 174 1.6 8.0 0.00 0.15 0.15 70 1025.9
20260905153215 20 192 1.6 6.4 0.00 0.15 0.15 70 1026.0
20260905152728 20 175 0.0 0.0 0.00 0.15 0.15 69 1026.0
20260905152225 20 175 0.0 0.0 0.00 0.15 0.15 69 1026.0
20260905151717 21 189 0.0 6.4 0.00 0.15 0.15 68 1026.0
20260905151219 21 169 0.0 9.7 0.00 0.15 0.15 70 1026.0
20260905150714 20 185 1.6 9.7 0.00 0.15 0.15 69 1025.9
20260905145731 20 213 4.8 12.9 0.00 0.15 0.15 71 1026.0
20260905145223 20 167 6.4 12.9 0.00 0.15 0.15 72 1026.0
20260905144722 20 169 6.4 12.9 0.00 0.15 0.15 72 1026.0
20260905144229 20 163 3.2 9.7 0.00 0.15 0.15 74 1026.0
20260905143716 20 200 3.2 9.7 0.00 0.15 0.15 73 1026.1
20260905143221 20 174 3.2 9.7 0.00 0.15 0.15 72 1026.1
20260905142230 20 145 1.6 9.7 0.00 0.15 0.15 72 1026.1
20260905141717 19 180 1.6 9.7 0.00 0.15 0.15 73 1026.2
20260905141221 19 178 3.2 9.7 0.00 0.15 0.15 74 1026.2
20260905140226 19 176 4.8 9.7 0.00 0.15 0.15 74 1026.3
20260905135726 19 178 3.2 9.7 0.00 0.15 0.15 73 1026.3
20260905135225 18 176 1.6 11.3 0.00 0.15 0.15 74 1026.3
20260905134748 18 184 1.6 11.3 0.00 0.15 0.15 75 1026.3
20260905134224 18 194 3.2 9.7 0.00 0.15 0.15 74 1026.4
20260905133220 17 167 1.6 11.3 0.00 0.15 0.15 74 1026.3
20260905132221 18 160 6.4 12.9 0.00 0.15 0.15 72 1026.3
20260905131718 18 159 3.2 11.3 0.00 0.15 0.15 72 1026.2
20260905131247 18 172 0.0 0.0 0.00 0.15 0.15 73 1026.3
20260905130706 17 163 0.0 9.7 0.00 0.15 0.15 76 1026.3
20260905130217 17 153 1.6 9.7 0.00 0.15 0.15 76 1026.2
20260905125730 17 173 3.2 11.3 0.00 0.15 0.15 76 1026.2
20260905125215 17 171 3.2 11.3 0.00 0.15 0.15 76 1026.1
20260905124721 17 165 3.2 12.9 0.00 0.15 0.15 76 1026.1
20260905123711 17 173 3.2 12.9 0.00 0.15 0.15 78 1026.1
20260905123209 17 131 4.8 12.9 0.00 0.15 0.15 79 1026.2
20260905122715 17 156 4.8 12.9 0.00 0.15 0.15 78 1026.1
20260905121720 17 155 3.2 11.3 0.00 0.15 0.15 76 1026.0
20260905120226 18 141 0.0 12.9 0.03 0.15 0.15 73 1025.9
20260905115730 18 150 3.2 12.9 0.03 0.15 0.15 73 1025.9
20260905115231 18 328 6.4 14.5 0.03 0.15 0.15 72 1026.0
20260905114709 18 355 8.0 14.5 0.03 0.15 0.15 72 1026.1
20260905114216 18 311 6.4 14.5 0.03 0.15 0.15 72 1026.0
20260905113722 18 332 4.8 11.3 0.03 0.15 0.15 71 1025.9
20260905113211 18 258 4.8 16.1 0.03 0.15 0.15 72 1025.9
20260905112725 18 265 4.8 16.1 0.03 0.15 0.15 71 1026.0
20260905112220 18 295 6.4 16.1 0.03 0.15 0.15 70 1026.0
20260905111716 18 231 6.4 16.1 0.03 0.15 0.15 69 1026.0
20260905111229 18 293 4.8 16.1 0.03 0.15 0.15 70 1025.9
20260905110715 18 328 4.8 9.7 0.00 0.13 0.13 72 1025.9
20260905110221 18 242 4.8 9.7 0.00 0.13 0.13 74 1025.8
20260905105729 18 282 3.2 14.5 0.00 0.13 0.13 74 1025.8
20260905105226 18 290 3.2 17.7 0.00 0.13 0.13 74 1025.7
20260905104212 18 339 6.4 17.7 0.00 0.13 0.13 76 1025.5
20260905103706 18 323 4.8 14.5 0.00 0.13 0.13 75 1025.7
20260905103222 18 346 3.2 14.5 0.00 0.13 0.13 74 1025.7
20260905102723 18 347 4.8 14.5 0.00 0.13 0.13 73 1025.7
20260905102230 18 255 3.2 14.5 0.00 0.13 0.13 72 1025.7
20260905101720 19 26 1.6 14.5 0.00 0.13 0.13 70 1025.5
20260905100226 18 209 0.0 0.0 0.00 0.13 0.13 74 1025.3
20260905095716 18 336 0.0 0.0 0.00 0.13 0.13 75 1025.3
20260905095210 18 151 0.0 0.0 0.00 0.13 0.13 73 1025.3
20260905094722 17 0 0.0 0.0 0.00 0.13 0.13 76 1025.3
20260905094218 17 267 0.0 0.0 0.00 0.13 0.13 78 1025.3
20260905093726 17 263 0.0 0.0 0.00 0.13 0.13 81 1025.2
20260905093228 17 97 0.0 0.0 0.00 0.13 0.13 78 1025.3
20260905092716 17 327 0.0 0.0 0.00 0.13 0.13 80 1025.3
20260905092216 17 327 0.0 4.8 0.00 0.13 0.13 79 1025.3
20260905091223 16 211 0.0 4.8 0.00 0.13 0.13 77 1025.2
20260905090715 16 278 0.0 0.0 0.00 0.13 0.13 83 1025.2
20260905090234 16 88 0.0 11.3 0.00 0.13 0.13 85 1025.1
20260905085217 16 26 1.6 8.0 0.00 0.13 0.13 87 1025.0
20260905084711 16 331 0.0 6.4 0.00 0.13 0.13 90 1025.0
20260905084215 16 229 0.0 0.0 0.00 0.13 0.13 91 1025.0
20260905083715 16 229 0.0 0.0 0.03 0.13 0.13 91 1024.8
20260905083228 16 229 0.0 0.0 0.05 0.13 0.13 92 1024.8
20260905082711 16 229 0.0 0.0 0.08 0.13 0.13 91 1024.7
20260905082213 16 229 0.0 0.0 0.10 0.13 0.13 91 1024.7
20260905081715 16 229 0.0 0.0 0.10 0.13 0.13 91 1024.6
20260905080720 16 234 0.0 0.0 0.10 0.13 0.13 91 1024.6
20260905080229 16 234 0.0 0.0 0.10 0.13 0.13 91 1024.5
20260905075740 16 234 0.0 0.0 0.10 0.13 0.13 91 1024.4
20260905074213 16 269 0.0 0.0 0.08 0.10 0.10 90 1024.4
20260905073219 16 269 0.0 0.0 0.05 0.05 0.05 89 1024.3
20260905072718 16 215 0.0 0.0 0.00 0.03 0.03 89 1024.1
20260905072218 16 202 0.0 0.0 0.00 0.03 0.03 88 1024.1
20260905071216 16 178 0.0 0.0 0.00 0.03 0.03 89 1024.0
20260905065716 16 178 0.0 0.0 0.00 0.03 0.03 88 1023.8
20260905065228 16 178 0.0 0.0 0.00 0.03 0.03 89 1023.8
20260905064218 16 178 0.0 0.0 0.00 0.03 0.03 89 1023.8
20260905062712 16 178 0.0 0.0 0.00 0.03 0.03 89 1023.6
20260905062217 16 179 0.0 0.0 0.00 0.03 0.03 89 1023.6
20260905061717 16 178 0.0 0.0 0.00 0.03 0.03 89 1023.5
20260905061225 16 178 0.0 0.0 0.00 0.03 0.03 90 1023.4
20260905060724 16 178 0.0 0.0 0.00 0.03 0.03 89 1023.4
20260905060227 16 138 0.0 0.0 0.00 0.03 0.03 89 1023.3
20260905055732 16 138 0.0 0.0 0.00 0.03 0.03 89 1023.3
20260905055213 16 138 0.0 0.0 0.00 0.03 0.03 89 1023.3
20260905054727 16 138 0.0 0.0 0.00 0.03 0.03 90 1023.3
20260905054218 16 138 0.0 0.0 0.00 0.03 0.03 89 1023.2
20260905053732 16 149 0.0 0.0 0.00 0.03 0.03 89 1023.1
20260905052749 16 167 0.0 0.0 0.00 0.03 0.03 89 1023.1
20260905052209 16 167 0.0 0.0 0.00 0.03 0.03 89 1023.1
20260905051716 16 167 0.0 0.0 0.00 0.03 0.03 89 1022.8
20260905051215 16 167 0.0 0.0 0.00 0.03 0.03 89 1023.1
20260905050723 16 167 0.0 0.0 0.03 0.03 0.03 89 1023.0
20260905050222 16 162 0.0 0.0 0.03 0.03 0.03 88 1022.8
20260905045734 16 162 0.0 0.0 0.03 0.03 0.03 88 1022.6
20260905045216 16 162 0.0 0.0 0.03 0.03 0.03 87 1022.4
20260905043724 16 106 0.0 0.0 0.03 0.03 0.03 86 1022.1
20260905042726 16 107 0.0 0.0 0.03 0.03 0.03 86 1022.1
20260905042227 16 107 0.0 0.0 0.03 0.03 0.03 85 1022.1
20260905041216 16 107 0.0 0.0 0.00 0.00 0.00 83 1022.1
20260905040714 16 107 0.0 0.0 0.00 0.00 0.00 83 1022.2
20260905040211 16 107 0.0 0.0 0.00 0.00 0.00 82 1022.3
20260905035231 16 107 0.0 0.0 0.00 0.00 0.00 81 1022.1
20260905034730 16 42 0.0 0.0 0.00 0.00 0.00 81 1022.2
20260905033721 16 33 0.0 0.0 0.00 0.00 0.00 80 1022.1
20260905033208 16 33 0.0 0.0 0.00 0.00 0.00 80 1022.1
20260905032715 16 33 0.0 0.0 0.00 0.00 0.00 80 1022.1
20260905032211 16 33 0.0 0.0 0.00 0.00 0.00 80 1022.0
20260905031719 16 33 0.0 0.0 0.00 0.00 0.00 79 1022.0
20260905031214 17 33 0.0 0.0 0.00 0.00 0.00 79 1022.0
20260905030241 17 32 0.0 0.0 0.00 0.00 0.00 79 1021.9
20260905025723 17 21 0.0 0.0 0.00 0.00 0.00 78 1021.9
20260905024725 17 21 0.0 0.0 0.00 0.00 0.00 77 1021.8
20260905024211 17 5 0.0 0.0 0.00 0.00 0.00 77 1021.5
20260905023723 17 5 0.0 0.0 0.00 0.00 0.00 77 1021.7
20260905023227 17 0 0.0 0.0 0.00 0.00 0.00 76 1021.8
20260905022720 17 351 0.0 0.0 0.00 0.00 0.00 76 1021.7
20260905022220 17 351 0.0 0.0 0.00 0.00 0.00 76 1021.7
20260905021250 17 351 0.0 0.0 0.00 0.00 0.00 76 1021.8
20260905020719 17 5 0.0 0.0 0.00 0.00 0.00 76 1021.7
20260905020213 18 5 0.0 0.0 0.00 0.00 0.00 75 1021.7
20260905015721 18 5 0.0 0.0 0.00 0.00 0.00 75 1021.8
20260905014721 18 24 0.0 9.7 0.00 0.00 0.00 74 1021.7
20260905014229 18 355 1.6 9.7 0.00 0.00 0.00 74 1021.7
20260905013715 18 302 1.6 11.3 0.00 0.00 0.00 74 1021.7
20260905013211 18 0 1.6 11.3 0.00 0.00 0.00 73 1021.7
20260905012232 18 322 0.0 4.8 0.00 0.00 0.00 71 1021.7
20260905011726 18 336 0.0 3.2 0.00 0.00 0.00 70 1021.5
20260905011215 18 336 0.0 0.0 0.00 0.00 0.00 70 1021.4
20260905010731 18 5 0.0 4.8 0.00 0.00 0.00 69 1021.3
20260905010217 18 17 0.0 4.8 0.00 0.00 0.00 68 1021.3
20260905005707 18 355 0.0 8.0 0.00 0.00 0.00 68 1021.4
20260905004711 18 355 1.6 12.9 0.00 0.00 0.00 67 1021.3
20260905003729 19 5 8.0 16.1 0.00 0.00 0.00 66 1021.4
20260905003216 19 323 6.4 16.1 0.00 0.00 0.00 66 1021.3
20260905002709 19 336 1.6 12.9 0.00 0.00 0.00 66 1021.2
20260905002220 19 337 0.0 17.7 0.00 0.00 0.00 65 1021.1
20260905001718 20 324 1.6 19.3 0.00 0.00 0.00 65 1021.1
20260905001231 20 324 6.4 19.3 0.00 0.00 0.00 65 1021.1
20260904235721 20 350 6.4 17.7 0.00 0.00 0.00 64 1021.1
20260904235227 20 333 3.2 12.9 0.00 0.00 0.00 64 1021.1
20260904234714 20 322 3.2 12.9 0.00 0.00 0.00 63 1021.0
20260904234232 20 333 1.6 8.0 0.00 0.00 0.00 62 1021.0
20260904233728 20 5 1.6 8.0 0.00 0.00 0.00 62 1021.0
20260904233225 20 324 0.0 8.0 0.00 0.00 0.00 61 1021.0
20260904232217 21 348 1.6 9.7 0.00 0.00 0.00 59 1020.9
20260904231721 21 336 1.6 14.5 0.00 0.00 0.00 58 1021.0
20260904231228 21 349 3.2 14.5 0.00 0.00 0.00 57 1021.0
20260904230722 22 351 4.8 14.5 0.00 0.00 0.00 56 1020.9
20260904230246 22 5 4.8 17.7 0.00 0.00 0.00 55 1020.9
20260904225727 22 347 6.4 17.7 0.00 0.00 0.00 56 1020.9
20260904225222 22 340 6.4 11.3 0.00 0.00 0.00 55 1020.8
20260904224717 22 13 4.8 14.5 0.00 0.00 0.00 56 1020.8
20260904224215 21 335 6.4 14.5 0.00 0.00 0.00 56 1020.7
20260904223712 21 324 4.8 12.9 0.00 0.00 0.00 57 1020.6
20260904222725 21 9 3.2 12.9 0.00 0.00 0.00 59 1020.6
20260904221724 20 342 0.0 6.4 0.00 0.00 0.00 62 1020.5
20260904220713 20 31 0.0 0.0 0.00 0.00 0.00 63 1020.5
20260904220225 20 87 0.0 0.0 0.00 0.00 0.00 63 1020.5
20260904215713 20 307 0.0 0.0 0.00 0.00 0.00 63 1020.5
20260904215227 20 344 0.0 0.0 0.00 0.00 0.00 63 1020.5